owner,sensor,date,latitude,longitude,vertical_datum,sea_water_practical_salinity,qcFlag 
ENP,ioos.station.NOAA.NDBC:LMDF1:1,2016-02-01T16:00:00Z,25.1760,-80.6330,1.5,19.06,1111122 
ENP,ioos.station.NOAA.NDBC:LMDF1:1,2016-02-01T17:00:00Z,25.1760,-80.6330,1.5,18.96,1111122 
ENP,ioos.station.NOAA.NDBC:LMDF1:1,2016-02-01T18:00:00Z,25.1760,-80.6330,1.5,19.1,1111122 
ENP,ioos.station.NOAA.NDBC:LMDF1:1,2016-02-01T19:00:00Z,25.1760,-80.6330,1.5,18.93,1111122 
ENP,ioos.station.NOAA.NDBC:LMDF1:1,2016-02-01T20:00:00Z,25.1760,-80.6330,1.5,18.25,1111122 
ENP,ioos.station.NOAA.NDBC:LMDF1:1,2016-02-01T21:00:00Z,25.1760,-80.6330,1.5,17.98,1111122 
ENP,ioos.station.NOAA.NDBC:LMDF1:1,2016-02-01T22:00:00Z,25.1760,-80.6330,1.5,18.06,1111122 
ENP,ioos.station.NOAA.NDBC:LMDF1:1,2016-02-01T23:00:00Z,25.1760,-80.6330,1.5,18.14,1111122 
ENP,ioos.station.NOAA.NDBC:LMDF1:1,2016-02-02T00:00:00Z,25.1760,-80.6330,1.5,18.5,1111122 
ENP,ioos.station.NOAA.NDBC:LMDF1:1,2016-02-02T01:00:00Z,25.1760,-80.6330,1.5,19.66,1111122 
ENP,ioos.station.NOAA.NDBC:LMDF1:1,2016-02-02T02:00:00Z,25.1760,-80.6330,1.5,20.16,1111122 
ENP,ioos.station.NOAA.NDBC:LMDF1:1,2016-02-02T03:00:00Z,25.1760,-80.6330,1.5,20.5,1111122 
ENP,ioos.station.NOAA.NDBC:LMDF1:1,2016-02-02T04:00:00Z,25.1760,-80.6330,1.5,20.61,1111122 
ENP,ioos.station.NOAA.NDBC:LMDF1:1,2016-02-02T05:00:00Z,25.1760,-80.6330,1.5,20.65,1111122 
ENP,ioos.station.NOAA.NDBC:LMDF1:1,2016-02-02T06:00:00Z,25.1760,-80.6330,1.5,20.66,1111122 
ENP,ioos.station.NOAA.NDBC:LMDF1:1,2016-02-02T07:00:00Z,25.1760,-80.6330,1.5,20.67,1111122 
ENP,ioos.station.NOAA.NDBC:LMDF1:1,2016-02-02T08:00:00Z,25.1760,-80.6330,1.5,20.09,1111122 
ENP,ioos.station.NOAA.NDBC:LMDF1:1,2016-02-02T09:00:00Z,25.1760,-80.6330,1.5,19.64,1111122 
ENP,ioos.station.NOAA.NDBC:LMDF1:1,2016-02-02T10:00:00Z,25.1760,-80.6330,1.5,19.32,1111122 
ENP,ioos.station.NOAA.NDBC:LMDF1:1,2016-02-02T11:00:00Z,25.1760,-80.6330,1.5,19.65,1111122 
ENP,ioos.station.NOAA.NDBC:LMDF1:1,2016-02-02T12:00:00Z,25.1760,-80.6330,1.5,20.49,1111122 
ENP,ioos.station.NOAA.NDBC:LMDF1:1,2016-02-02T13:00:00Z,25.1760,-80.6330,1.5,20.59,1111122 
ENP,ioos.station.NOAA.NDBC:LMDF1:1,2016-02-02T14:00:00Z,25.1760,-80.6330,1.5,20.74,1111122 
ENP,ioos.station.NOAA.NDBC:LMDF1:1,2016-02-02T15:00:00Z,25.1760,-80.6330,1.5,20.43,1111122 
ENP,ioos.station.NOAA.NDBC:LMDF1:1,2016-02-02T16:00:00Z,25.1760,-80.6330,1.5,19.78,1111122 
ENP,ioos.station.NOAA.NDBC:LMDF1:1,2016-02-02T18:00:00Z,25.1760,-80.6330,1.5,19.15,1111122 
ENP,ioos.station.NOAA.NDBC:LMDF1:1,2016-02-02T19:00:00Z,25.1760,-80.6330,1.5,17.33,1111122 
ENP,ioos.station.NOAA.NDBC:LMDF1:1,2016-02-02T20:00:00Z,25.1760,-80.6330,1.5,20.12,1111122 
ENP,ioos.station.NOAA.NDBC:LMDF1:1,2016-02-02T21:00:00Z,25.1760,-80.6330,1.5,20.04,1111122 
ENP,ioos.station.NOAA.NDBC:LMDF1:1,2016-02-02T22:00:00Z,25.1760,-80.6330,1.5,19.46,1111122 
ENP,ioos.station.NOAA.NDBC:LMDF1:1,2016-02-02T23:00:00Z,25.1760,-80.6330,1.5,19.07,1111122 
ENP,ioos.station.NOAA.NDBC:LMDF1:1,2016-02-03T00:00:00Z,25.1760,-80.6330,1.5,19.03,1111122 
ENP,ioos.station.NOAA.NDBC:LMDF1:1,2016-02-03T01:00:00Z,25.1760,-80.6330,1.5,19.82,1111122 
ENP,ioos.station.NOAA.NDBC:LMDF1:1,2016-02-03T02:00:00Z,25.1760,-80.6330,1.5,20.12,1111122 
ENP,ioos.station.NOAA.NDBC:LMDF1:1,2016-02-03T03:00:00Z,25.1760,-80.6330,1.5,19.12,1111122 
ENP,ioos.station.NOAA.NDBC:LMDF1:1,2016-02-03T04:00:00Z,25.1760,-80.6330,1.5,19.37,1111122 
ENP,ioos.station.NOAA.NDBC:LMDF1:1,2016-02-03T05:00:00Z,25.1760,-80.6330,1.5,20.12,1111122 
ENP,ioos.station.NOAA.NDBC:LMDF1:1,2016-02-03T06:00:00Z,25.1760,-80.6330,1.5,19.93,1111122 
ENP,ioos.station.NOAA.NDBC:LMDF1:1,2016-02-03T07:00:00Z,25.1760,-80.6330,1.5,19.08,1111122 
ENP,ioos.station.NOAA.NDBC:LMDF1:1,2016-02-03T08:00:00Z,25.1760,-80.6330,1.5,19.84,1111122 
ENP,ioos.station.NOAA.NDBC:LMDF1:1,2016-02-03T09:00:00Z,25.1760,-80.6330,1.5,19.75,1111122 
ENP,ioos.station.NOAA.NDBC:LMDF1:1,2016-02-03T10:00:00Z,25.1760,-80.6330,1.5,19.11,1111122 
ENP,ioos.station.NOAA.NDBC:LMDF1:1,2016-02-03T11:00:00Z,25.1760,-80.6330,1.5,19.04,1111122 
ENP,ioos.station.NOAA.NDBC:LMDF1:1,2016-02-03T12:00:00Z,25.1760,-80.6330,1.5,18.66,1111122 
ENP,ioos.station.NOAA.NDBC:LMDF1:1,2016-02-03T13:00:00Z,25.1760,-80.6330,1.5,19.54,1111122 
ENP,ioos.station.NOAA.NDBC:LMDF1:1,2016-02-03T14:00:00Z,25.1760,-80.6330,1.5,19.47,1111122 
ENP,ioos.station.NOAA.NDBC:LMDF1:1,2016-02-03T15:00:00Z,25.1760,-80.6330,1.5,18.08,1111122 
ENP,ioos.station.NOAA.NDBC:LMDF1:1,2016-02-03T16:00:00Z,25.1760,-80.6330,1.5,19.04,1111122 
ENP,ioos.station.NOAA.NDBC:LMDF1:1,2016-02-03T17:00:00Z,25.1760,-80.6330,1.5,16.98,1111122 
ENP,ioos.station.NOAA.NDBC:LMDF1:1,2016-02-03T18:00:00Z,25.1760,-80.6330,1.5,18.43,1111122 
ENP,ioos.station.NOAA.NDBC:LMDF1:1,2016-02-03T19:00:00Z,25.1760,-80.6330,1.5,18.11,1111122 
ENP,ioos.station.NOAA.NDBC:LMDF1:1,2016-02-03T20:00:00Z,25.1760,-80.6330,1.5,16.05,1111122 
ENP,ioos.station.NOAA.NDBC:LMDF1:1,2016-02-03T21:00:00Z,25.1760,-80.6330,1.5,17.05,1111122 
ENP,ioos.station.NOAA.NDBC:LMDF1:1,2016-02-03T22:00:00Z,25.1760,-80.6330,1.5,17.76,1111122 
ENP,ioos.station.NOAA.NDBC:LMDF1:1,2016-02-03T23:00:00Z,25.1760,-80.6330,1.5,16.66,1111122 
ENP,ioos.station.NOAA.NDBC:LMDF1:1,2016-02-04T00:00:00Z,25.1760,-80.6330,1.5,17.59,1111122 
ENP,ioos.station.NOAA.NDBC:LMDF1:1,2016-02-04T01:00:00Z,25.1760,-80.6330,1.5,18.57,1111122 
ENP,ioos.station.NOAA.NDBC:LMDF1:1,2016-02-04T02:00:00Z,25.1760,-80.6330,1.5,17.88,1111122 
ENP,ioos.station.NOAA.NDBC:LMDF1:1,2016-02-04T03:00:00Z,25.1760,-80.6330,1.5,18.13,1111122 
ENP,ioos.station.NOAA.NDBC:LMDF1:1,2016-02-04T04:00:00Z,25.1760,-80.6330,1.5,18.11,1111122 
ENP,ioos.station.NOAA.NDBC:LMDF1:1,2016-02-04T05:00:00Z,25.1760,-80.6330,1.5,18.41,1111122 
ENP,ioos.station.NOAA.NDBC:LMDF1:1,2016-02-04T06:00:00Z,25.1760,-80.6330,1.5,18.06,1111122 
ENP,ioos.station.NOAA.NDBC:LMDF1:1,2016-02-04T07:00:00Z,25.1760,-80.6330,1.5,14.1,1111122 
ENP,ioos.station.NOAA.NDBC:LMDF1:1,2016-02-04T08:00:00Z,25.1760,-80.6330,1.5,17.56,1111122 
ENP,ioos.station.NOAA.NDBC:LMDF1:1,2016-02-04T09:00:00Z,25.1760,-80.6330,1.5,18.47,1111122 
ENP,ioos.station.NOAA.NDBC:LMDF1:1,2016-02-04T10:00:00Z,25.1760,-80.6330,1.5,16.34,1111122 
ENP,ioos.station.NOAA.NDBC:LMDF1:1,2016-02-04T11:00:00Z,25.1760,-80.6330,1.5,18.13,1111122 
ENP,ioos.station.NOAA.NDBC:LMDF1:1,2016-02-04T12:00:00Z,25.1760,-80.6330,1.5,17.98,1111122 
ENP,ioos.station.NOAA.NDBC:LMDF1:1,2016-02-04T13:00:00Z,25.1760,-80.6330,1.5,17.58,1111122 
ENP,ioos.station.NOAA.NDBC:LMDF1:1,2016-02-04T14:00:00Z,25.1760,-80.6330,1.5,18.09,1111122 
ENP,ioos.station.NOAA.NDBC:LMDF1:1,2016-02-04T15:00:00Z,25.1760,-80.6330,1.5,16.95,1111122 
ENP,ioos.station.NOAA.NDBC:LMDF1:1,2016-02-04T16:00:00Z,25.1760,-80.6330,1.5,17.9,1111122 
ENP,ioos.station.NOAA.NDBC:LMDF1:1,2016-02-04T17:00:00Z,25.1760,-80.6330,1.5,17.85,1111122 
ENP,ioos.station.NOAA.NDBC:LMDF1:1,2016-02-04T18:00:00Z,25.1760,-80.6330,1.5,17.37,1111122 
ENP,ioos.station.NOAA.NDBC:LMDF1:1,2016-02-04T19:00:00Z,25.1760,-80.6330,1.5,16.97,1111122 
ENP,ioos.station.NOAA.NDBC:LMDF1:1,2016-02-04T20:00:00Z,25.1760,-80.6330,1.5,17.09,1111122 
ENP,ioos.station.NOAA.NDBC:LMDF1:1,2016-02-04T21:00:00Z,25.1760,-80.6330,1.5,14.54,1111122 
ENP,ioos.station.NOAA.NDBC:LMDF1:1,2016-02-04T22:00:00Z,25.1760,-80.6330,1.5,17.76,1111122 
ENP,ioos.station.NOAA.NDBC:LMDF1:1,2016-02-04T23:00:00Z,25.1760,-80.6330,1.5,17.9,1111122 
ENP,ioos.station.NOAA.NDBC:LMDF1:1,2016-02-05T00:00:00Z,25.1760,-80.6330,1.5,17.94,1111122 
ENP,ioos.station.NOAA.NDBC:LMDF1:1,2016-02-05T01:00:00Z,25.1760,-80.6330,1.5,17.88,1111122 
ENP,ioos.station.NOAA.NDBC:LMDF1:1,2016-02-05T02:00:00Z,25.1760,-80.6330,1.5,18.08,1111122 
ENP,ioos.station.NOAA.NDBC:LMDF1:1,2016-02-05T03:00:00Z,25.1760,-80.6330,1.5,18.13,1111122 
ENP,ioos.station.NOAA.NDBC:LMDF1:1,2016-02-05T04:00:00Z,25.1760,-80.6330,1.5,17.77,1111122 
ENP,ioos.station.NOAA.NDBC:LMDF1:1,2016-02-05T05:00:00Z,25.1760,-80.6330,1.5,17.62,1111122 
ENP,ioos.station.NOAA.NDBC:LMDF1:1,2016-02-05T06:00:00Z,25.1760,-80.6330,1.5,17.73,1111122 
ENP,ioos.station.NOAA.NDBC:LMDF1:1,2016-02-05T07:00:00Z,25.1760,-80.6330,1.5,17.29,1111122 
ENP,ioos.station.NOAA.NDBC:LMDF1:1,2016-02-05T08:00:00Z,25.1760,-80.6330,1.5,13.64,1111122 
ENP,ioos.station.NOAA.NDBC:LMDF1:1,2016-02-05T09:00:00Z,25.1760,-80.6330,1.5,12.43,1111122 
ENP,ioos.station.NOAA.NDBC:LMDF1:1,2016-02-05T11:00:00Z,25.1760,-80.6330,1.5,11.83,1111122 
ENP,ioos.station.NOAA.NDBC:LMDF1:1,2016-02-05T12:00:00Z,25.1760,-80.6330,1.5,11.51,1111122 
ENP,ioos.station.NOAA.NDBC:LMDF1:1,2016-02-05T13:00:00Z,25.1760,-80.6330,1.5,11.41,1111122 
ENP,ioos.station.NOAA.NDBC:LMDF1:1,2016-02-05T14:00:00Z,25.1760,-80.6330,1.5,11.34,1111122 
ENP,ioos.station.NOAA.NDBC:LMDF1:1,2016-02-05T15:00:00Z,25.1760,-80.6330,1.5,16.94,1111122 
ENP,ioos.station.NOAA.NDBC:LMDF1:1,2016-02-05T16:00:00Z,25.1760,-80.6330,1.5,14.51,1111122 
ENP,ioos.station.NOAA.NDBC:LMDF1:1,2016-02-05T17:00:00Z,25.1760,-80.6330,1.5,16.77,1111122 
ENP,ioos.station.NOAA.NDBC:LMDF1:1,2016-02-05T18:00:00Z,25.1760,-80.6330,1.5,16.02,1111122 
ENP,ioos.station.NOAA.NDBC:LMDF1:1,2016-02-05T19:00:00Z,25.1760,-80.6330,1.5,16.75,1111122 
ENP,ioos.station.NOAA.NDBC:LMDF1:1,2016-02-05T20:00:00Z,25.1760,-80.6330,1.5,14.53,1111122 
ENP,ioos.station.NOAA.NDBC:LMDF1:1,2016-02-05T21:00:00Z,25.1760,-80.6330,1.5,15.74,1111122 
ENP,ioos.station.NOAA.NDBC:LMDF1:1,2016-02-05T22:00:00Z,25.1760,-80.6330,1.5,16.34,1111122 
ENP,ioos.station.NOAA.NDBC:LMDF1:1,2016-02-06T00:00:00Z,25.1760,-80.6330,1.5,15.08,1111122 
ENP,ioos.station.NOAA.NDBC:LMDF1:1,2016-02-06T01:00:00Z,25.1760,-80.6330,1.5,14.25,1111122 
ENP,ioos.station.NOAA.NDBC:LMDF1:1,2016-02-06T02:00:00Z,25.1760,-80.6330,1.5,15.85,1111122 
ENP,ioos.station.NOAA.NDBC:LMDF1:1,2016-02-06T03:00:00Z,25.1760,-80.6330,1.5,16.41,1111122 
ENP,ioos.station.NOAA.NDBC:LMDF1:1,2016-02-06T04:00:00Z,25.1760,-80.6330,1.5,16.5,1111122 
ENP,ioos.station.NOAA.NDBC:LMDF1:1,2016-02-06T05:00:00Z,25.1760,-80.6330,1.5,16.59,1111122 
ENP,ioos.station.NOAA.NDBC:LMDF1:1,2016-02-06T06:00:00Z,25.1760,-80.6330,1.5,14.35,1111122 
ENP,ioos.station.NOAA.NDBC:LMDF1:1,2016-02-06T07:00:00Z,25.1760,-80.6330,1.5,14.32,1111122 
ENP,ioos.station.NOAA.NDBC:LMDF1:1,2016-02-06T08:00:00Z,25.1760,-80.6330,1.5,15.84,1111122 
ENP,ioos.station.NOAA.NDBC:LMDF1:1,2016-02-06T09:00:00Z,25.1760,-80.6330,1.5,16.31,1111122 
ENP,ioos.station.NOAA.NDBC:LMDF1:1,2016-02-06T10:00:00Z,25.1760,-80.6330,1.5,12.02,1111122 
ENP,ioos.station.NOAA.NDBC:LMDF1:1,2016-02-06T11:00:00Z,25.1760,-80.6330,1.5,15.42,1111122 
ENP,ioos.station.NOAA.NDBC:LMDF1:1,2016-02-06T12:00:00Z,25.1760,-80.6330,1.5,16.14,1111122 
ENP,ioos.station.NOAA.NDBC:LMDF1:1,2016-02-06T13:00:00Z,25.1760,-80.6330,1.5,12.25,1111122 
ENP,ioos.station.NOAA.NDBC:LMDF1:1,2016-02-06T14:00:00Z,25.1760,-80.6330,1.5,14.5,1111122 
ENP,ioos.station.NOAA.NDBC:LMDF1:1,2016-02-06T15:00:00Z,25.1760,-80.6330,1.5,16.14,1111122 
ENP,ioos.station.NOAA.NDBC:LMDF1:1,2016-02-06T16:00:00Z,25.1760,-80.6330,1.5,16.59,1111122 
ENP,ioos.station.NOAA.NDBC:LMDF1:1,2016-02-06T17:00:00Z,25.1760,-80.6330,1.5,15.95,1111122 
ENP,ioos.station.NOAA.NDBC:LMDF1:1,2016-02-06T18:00:00Z,25.1760,-80.6330,1.5,16.34,1111122 
ENP,ioos.station.NOAA.NDBC:LMDF1:1,2016-02-06T19:00:00Z,25.1760,-80.6330,1.5,16.39,1111122 
ENP,ioos.station.NOAA.NDBC:LMDF1:1,2016-02-06T20:00:00Z,25.1760,-80.6330,1.5,16.37,1111122 
ENP,ioos.station.NOAA.NDBC:LMDF1:1,2016-02-06T21:00:00Z,25.1760,-80.6330,1.5,15.6,1111122 
ENP,ioos.station.NOAA.NDBC:LMDF1:1,2016-02-06T22:00:00Z,25.1760,-80.6330,1.5,15.32,1111122 
ENP,ioos.station.NOAA.NDBC:LMDF1:1,2016-02-06T23:00:00Z,25.1760,-80.6330,1.5,16.11,1111122 
ENP,ioos.station.NOAA.NDBC:LMDF1:1,2016-02-07T00:00:00Z,25.1760,-80.6330,1.5,16.33,1111122 
ENP,ioos.station.NOAA.NDBC:LMDF1:1,2016-02-07T01:00:00Z,25.1760,-80.6330,1.5,11.06,1111122 
ENP,ioos.station.NOAA.NDBC:LMDF1:1,2016-02-07T02:00:00Z,25.1760,-80.6330,1.5,10.81,1111122 
ENP,ioos.station.NOAA.NDBC:LMDF1:1,2016-02-07T03:00:00Z,25.1760,-80.6330,1.5,12.98,1111122 
ENP,ioos.station.NOAA.NDBC:LMDF1:1,2016-02-07T04:00:00Z,25.1760,-80.6330,1.5,15.23,1111122 
ENP,ioos.station.NOAA.NDBC:LMDF1:1,2016-02-07T05:00:00Z,25.1760,-80.6330,1.5,15.5,1111122 
ENP,ioos.station.NOAA.NDBC:LMDF1:1,2016-02-07T06:00:00Z,25.1760,-80.6330,1.5,15.9,1111122 
ENP,ioos.station.NOAA.NDBC:LMDF1:1,2016-02-07T07:00:00Z,25.1760,-80.6330,1.5,13.57,1111122 
ENP,ioos.station.NOAA.NDBC:LMDF1:1,2016-02-07T08:00:00Z,25.1760,-80.6330,1.5,12.24,1111122 
ENP,ioos.station.NOAA.NDBC:LMDF1:1,2016-02-07T09:00:00Z,25.1760,-80.6330,1.5,13.86,1111122 
ENP,ioos.station.NOAA.NDBC:LMDF1:1,2016-02-07T10:00:00Z,25.1760,-80.6330,1.5,14.59,1111122 
ENP,ioos.station.NOAA.NDBC:LMDF1:1,2016-02-07T12:00:00Z,25.1760,-80.6330,1.5,16.03,1111122 
ENP,ioos.station.NOAA.NDBC:LMDF1:1,2016-02-07T13:00:00Z,25.1760,-80.6330,1.5,14.47,1111122 
ENP,ioos.station.NOAA.NDBC:LMDF1:1,2016-02-07T14:00:00Z,25.1760,-80.6330,1.5,11.5,1111122 
ENP,ioos.station.NOAA.NDBC:LMDF1:1,2016-02-07T15:00:00Z,25.1760,-80.6330,1.5,11.15,1111122 
ENP,ioos.station.NOAA.NDBC:LMDF1:1,2016-02-07T16:00:00Z,25.1760,-80.6330,1.5,13.64,1111122 
ENP,ioos.station.NOAA.NDBC:LMDF1:1,2016-02-07T17:00:00Z,25.1760,-80.6330,1.5,15.3,1111122 
ENP,ioos.station.NOAA.NDBC:LMDF1:1,2016-02-07T18:00:00Z,25.1760,-80.6330,1.5,16.12,1111122 
ENP,ioos.station.NOAA.NDBC:LMDF1:1,2016-02-07T19:00:00Z,25.1760,-80.6330,1.5,16.51,1111122 
ENP,ioos.station.NOAA.NDBC:LMDF1:1,2016-02-07T20:00:00Z,25.1760,-80.6330,1.5,12.05,1111122 
ENP,ioos.station.NOAA.NDBC:LMDF1:1,2016-02-07T21:00:00Z,25.1760,-80.6330,1.5,11.59,1111122 
ENP,ioos.station.NOAA.NDBC:LMDF1:1,2016-02-07T22:00:00Z,25.1760,-80.6330,1.5,10.81,1111122 
ENP,ioos.station.NOAA.NDBC:LMDF1:1,2016-02-07T23:00:00Z,25.1760,-80.6330,1.5,10.89,1111122 
ENP,ioos.station.NOAA.NDBC:LMDF1:1,2016-02-08T00:00:00Z,25.1760,-80.6330,1.5,12.08,1111122 
ENP,ioos.station.NOAA.NDBC:LMDF1:1,2016-02-08T01:00:00Z,25.1760,-80.6330,1.5,14.89,1111122 
ENP,ioos.station.NOAA.NDBC:LMDF1:1,2016-02-08T02:00:00Z,25.1760,-80.6330,1.5,15.8,1111122 
ENP,ioos.station.NOAA.NDBC:LMDF1:1,2016-02-08T03:00:00Z,25.1760,-80.6330,1.5,16.24,1111122 
ENP,ioos.station.NOAA.NDBC:LMDF1:1,2016-02-08T04:00:00Z,25.1760,-80.6330,1.5,16.6,1111122 
ENP,ioos.station.NOAA.NDBC:LMDF1:1,2016-02-08T05:00:00Z,25.1760,-80.6330,1.5,16.76,1111122 
ENP,ioos.station.NOAA.NDBC:LMDF1:1,2016-02-08T06:00:00Z,25.1760,-80.6330,1.5,16.86,1111122 
ENP,ioos.station.NOAA.NDBC:LMDF1:1,2016-02-08T07:00:00Z,25.1760,-80.6330,1.5,16.88,1111122 
ENP,ioos.station.NOAA.NDBC:LMDF1:1,2016-02-08T08:00:00Z,25.1760,-80.6330,1.5,16.83,1111122 
ENP,ioos.station.NOAA.NDBC:LMDF1:1,2016-02-08T09:00:00Z,25.1760,-80.6330,1.5,15.75,1111122 
ENP,ioos.station.NOAA.NDBC:LMDF1:1,2016-02-08T10:00:00Z,25.1760,-80.6330,1.5,15.96,1111122 
ENP,ioos.station.NOAA.NDBC:LMDF1:1,2016-02-08T11:00:00Z,25.1760,-80.6330,1.5,16.17,1111122 
ENP,ioos.station.NOAA.NDBC:LMDF1:1,2016-02-08T12:00:00Z,25.1760,-80.6330,1.5,16.36,1111122 
ENP,ioos.station.NOAA.NDBC:LMDF1:1,2016-02-08T13:00:00Z,25.1760,-80.6330,1.5,16.57,1111122 
ENP,ioos.station.NOAA.NDBC:LMDF1:1,2016-02-08T14:00:00Z,25.1760,-80.6330,1.5,16.65,1111122 
ENP,ioos.station.NOAA.NDBC:LMDF1:1,2016-02-08T15:00:00Z,25.1760,-80.6330,1.5,16.94,1111122 
ENP,ioos.station.NOAA.NDBC:LMDF1:1,2016-02-08T16:00:00Z,25.1760,-80.6330,1.5,17.02,1111122 
ENP,ioos.station.NOAA.NDBC:LMDF1:1,2016-02-08T17:00:00Z,25.1760,-80.6330,1.5,17.02,1111122 
ENP,ioos.station.NOAA.NDBC:LMDF1:1,2016-02-08T18:00:00Z,25.1760,-80.6330,1.5,17.04,1111122 
ENP,ioos.station.NOAA.NDBC:LMDF1:1,2016-02-08T19:00:00Z,25.1760,-80.6330,1.5,17.15,1111122 
ENP,ioos.station.NOAA.NDBC:LMDF1:1,2016-02-08T20:00:00Z,25.1760,-80.6330,1.5,17.15,1111122 
ENP,ioos.station.NOAA.NDBC:LMDF1:1,2016-02-08T21:00:00Z,25.1760,-80.6330,1.5,17.08,1111122 
ENP,ioos.station.NOAA.NDBC:LMDF1:1,2016-02-08T22:00:00Z,25.1760,-80.6330,1.5,17.09,1111122 
ENP,ioos.station.NOAA.NDBC:LMDF1:1,2016-02-08T23:00:00Z,25.1760,-80.6330,1.5,17.15,1111122 
ENP,ioos.station.NOAA.NDBC:LMDF1:1,2016-02-09T00:00:00Z,25.1760,-80.6330,1.5,16.15,1111122 
ENP,ioos.station.NOAA.NDBC:LMDF1:1,2016-02-09T01:00:00Z,25.1760,-80.6330,1.5,16.67,1111122 
ENP,ioos.station.NOAA.NDBC:LMDF1:1,2016-02-09T02:00:00Z,25.1760,-80.6330,1.5,17.23,1111122 
ENP,ioos.station.NOAA.NDBC:LMDF1:1,2016-02-09T03:00:00Z,25.1760,-80.6330,1.5,17.21,1111122 
ENP,ioos.station.NOAA.NDBC:LMDF1:1,2016-02-09T04:00:00Z,25.1760,-80.6330,1.5,17.28,1111122 
ENP,ioos.station.NOAA.NDBC:LMDF1:1,2016-02-09T05:00:00Z,25.1760,-80.6330,1.5,17.35,1111122 
ENP,ioos.station.NOAA.NDBC:LMDF1:1,2016-02-09T06:00:00Z,25.1760,-80.6330,1.5,17.44,1111122 
ENP,ioos.station.NOAA.NDBC:LMDF1:1,2016-02-09T07:00:00Z,25.1760,-80.6330,1.5,17.51,1111122 
ENP,ioos.station.NOAA.NDBC:LMDF1:1,2016-02-09T08:00:00Z,25.1760,-80.6330,1.5,17.35,1111122 
ENP,ioos.station.NOAA.NDBC:LMDF1:1,2016-02-09T09:00:00Z,25.1760,-80.6330,1.5,17.36,1111122 
ENP,ioos.station.NOAA.NDBC:LMDF1:1,2016-02-09T10:00:00Z,25.1760,-80.6330,1.5,17.37,1111122 
ENP,ioos.station.NOAA.NDBC:LMDF1:1,2016-02-09T11:00:00Z,25.1760,-80.6330,1.5,16.61,1111122 
ENP,ioos.station.NOAA.NDBC:LMDF1:1,2016-02-09T12:00:00Z,25.1760,-80.6330,1.5,15.49,1111122 
ENP,ioos.station.NOAA.NDBC:LMDF1:1,2016-02-09T13:00:00Z,25.1760,-80.6330,1.5,15.58,1111122 
ENP,ioos.station.NOAA.NDBC:LMDF1:1,2016-02-09T14:00:00Z,25.1760,-80.6330,1.5,16.24,1111122 
ENP,ioos.station.NOAA.NDBC:LMDF1:1,2016-02-09T15:00:00Z,25.1760,-80.6330,1.5,16.71,1111122 
ENP,ioos.station.NOAA.NDBC:LMDF1:1,2016-02-09T16:00:00Z,25.1760,-80.6330,1.5,16.73,1111122 
ENP,ioos.station.NOAA.NDBC:LMDF1:1,2016-02-09T17:00:00Z,25.1760,-80.6330,1.5,17.37,1111122 
ENP,ioos.station.NOAA.NDBC:LMDF1:1,2016-02-09T18:00:00Z,25.1760,-80.6330,1.5,17.81,1111122 
ENP,ioos.station.NOAA.NDBC:LMDF1:1,2016-02-09T19:00:00Z,25.1760,-80.6330,1.5,17.74,1111122 
ENP,ioos.station.NOAA.NDBC:LMDF1:1,2016-02-09T20:00:00Z,25.1760,-80.6330,1.5,17.83,1111122 
ENP,ioos.station.NOAA.NDBC:LMDF1:1,2016-02-09T21:00:00Z,25.1760,-80.6330,1.5,17.95,1111122 
ENP,ioos.station.NOAA.NDBC:LMDF1:1,2016-02-09T22:00:00Z,25.1760,-80.6330,1.5,17.92,1111122 
ENP,ioos.station.NOAA.NDBC:LMDF1:1,2016-02-09T23:00:00Z,25.1760,-80.6330,1.5,17.87,1111122 
ENP,ioos.station.NOAA.NDBC:LMDF1:1,2016-02-10T00:00:00Z,25.1760,-80.6330,1.5,17.98,1111122 
ENP,ioos.station.NOAA.NDBC:LMDF1:1,2016-02-10T01:00:00Z,25.1760,-80.6330,1.5,18.0,1111122 
ENP,ioos.station.NOAA.NDBC:LMDF1:1,2016-02-10T02:00:00Z,25.1760,-80.6330,1.5,18.04,1111122 
ENP,ioos.station.NOAA.NDBC:LMDF1:1,2016-02-10T04:00:00Z,25.1760,-80.6330,1.5,18.13,1111122 
ENP,ioos.station.NOAA.NDBC:LMDF1:1,2016-02-10T05:00:00Z,25.1760,-80.6330,1.5,18.22,1111122 
ENP,ioos.station.NOAA.NDBC:LMDF1:1,2016-02-10T06:00:00Z,25.1760,-80.6330,1.5,18.31,1111122 
ENP,ioos.station.NOAA.NDBC:LMDF1:1,2016-02-10T07:00:00Z,25.1760,-80.6330,1.5,18.38,1111122 
ENP,ioos.station.NOAA.NDBC:LMDF1:1,2016-02-10T08:00:00Z,25.1760,-80.6330,1.5,18.44,1111122 
ENP,ioos.station.NOAA.NDBC:LMDF1:1,2016-02-10T09:00:00Z,25.1760,-80.6330,1.5,18.35,1111122 
ENP,ioos.station.NOAA.NDBC:LMDF1:1,2016-02-10T10:00:00Z,25.1760,-80.6330,1.5,18.38,1111122 
ENP,ioos.station.NOAA.NDBC:LMDF1:1,2016-02-10T11:00:00Z,25.1760,-80.6330,1.5,18.44,1111122 
ENP,ioos.station.NOAA.NDBC:LMDF1:1,2016-02-10T12:00:00Z,25.1760,-80.6330,1.5,18.5,1111122 
ENP,ioos.station.NOAA.NDBC:LMDF1:1,2016-02-10T13:00:00Z,25.1760,-80.6330,1.5,18.61,1111122 
ENP,ioos.station.NOAA.NDBC:LMDF1:1,2016-02-10T14:00:00Z,25.1760,-80.6330,1.5,14.69,1111122 
ENP,ioos.station.NOAA.NDBC:LMDF1:1,2016-02-10T15:00:00Z,25.1760,-80.6330,1.5,15.62,1111122 
ENP,ioos.station.NOAA.NDBC:LMDF1:1,2016-02-10T16:00:00Z,25.1760,-80.6330,1.5,17.98,1111122 
ENP,ioos.station.NOAA.NDBC:LMDF1:1,2016-02-10T17:00:00Z,25.1760,-80.6330,1.5,19.34,1111122 
ENP,ioos.station.NOAA.NDBC:LMDF1:1,2016-02-10T18:00:00Z,25.1760,-80.6330,1.5,19.81,1111122 
ENP,ioos.station.NOAA.NDBC:LMDF1:1,2016-02-10T19:00:00Z,25.1760,-80.6330,1.5,20.23,1111122 
ENP,ioos.station.NOAA.NDBC:LMDF1:1,2016-02-10T20:00:00Z,25.1760,-80.6330,1.5,20.48,1111122 
ENP,ioos.station.NOAA.NDBC:LMDF1:1,2016-02-10T21:00:00Z,25.1760,-80.6330,1.5,20.57,1111122 
ENP,ioos.station.NOAA.NDBC:LMDF1:1,2016-02-11T00:00:00Z,25.1760,-80.6330,1.5,17.76,1111122 
ENP,ioos.station.NOAA.NDBC:LMDF1:1,2016-02-11T01:00:00Z,25.1760,-80.6330,1.5,18.7,1111122 
ENP,ioos.station.NOAA.NDBC:LMDF1:1,2016-02-11T02:00:00Z,25.1760,-80.6330,1.5,19.54,1111122 
ENP,ioos.station.NOAA.NDBC:LMDF1:1,2016-02-11T03:00:00Z,25.1760,-80.6330,1.5,19.0,1111122 
ENP,ioos.station.NOAA.NDBC:LMDF1:1,2016-02-11T04:00:00Z,25.1760,-80.6330,1.5,19.17,1111122 
ENP,ioos.station.NOAA.NDBC:LMDF1:1,2016-02-11T05:00:00Z,25.1760,-80.6330,1.5,19.58,1111122 
ENP,ioos.station.NOAA.NDBC:LMDF1:1,2016-02-11T06:00:00Z,25.1760,-80.6330,1.5,20.24,1111122 
ENP,ioos.station.NOAA.NDBC:LMDF1:1,2016-02-11T07:00:00Z,25.1760,-80.6330,1.5,20.41,1111122 
ENP,ioos.station.NOAA.NDBC:LMDF1:1,2016-02-11T08:00:00Z,25.1760,-80.6330,1.5,19.78,1111122 
ENP,ioos.station.NOAA.NDBC:LMDF1:1,2016-02-11T09:00:00Z,25.1760,-80.6330,1.5,19.88,1111122 
ENP,ioos.station.NOAA.NDBC:LMDF1:1,2016-02-11T10:00:00Z,25.1760,-80.6330,1.5,20.08,1111122 
ENP,ioos.station.NOAA.NDBC:LMDF1:1,2016-02-11T11:00:00Z,25.1760,-80.6330,1.5,20.28,1111122 
ENP,ioos.station.NOAA.NDBC:LMDF1:1,2016-02-11T12:00:00Z,25.1760,-80.6330,1.5,20.15,1111122 
ENP,ioos.station.NOAA.NDBC:LMDF1:1,2016-02-11T13:00:00Z,25.1760,-80.6330,1.5,20.16,1111122 
ENP,ioos.station.NOAA.NDBC:LMDF1:1,2016-02-11T14:00:00Z,25.1760,-80.6330,1.5,20.33,1111122 
ENP,ioos.station.NOAA.NDBC:LMDF1:1,2016-02-11T15:00:00Z,25.1760,-80.6330,1.5,18.63,1111122 
ENP,ioos.station.NOAA.NDBC:LMDF1:1,2016-02-11T16:00:00Z,25.1760,-80.6330,1.5,20.67,1111122 
ENP,ioos.station.NOAA.NDBC:LMDF1:1,2016-02-11T17:00:00Z,25.1760,-80.6330,1.5,21.7,1111122 
ENP,ioos.station.NOAA.NDBC:LMDF1:1,2016-02-11T18:00:00Z,25.1760,-80.6330,1.5,22.11,1111122 
ENP,ioos.station.NOAA.NDBC:LMDF1:1,2016-02-11T19:00:00Z,25.1760,-80.6330,1.5,22.17,1111122 
ENP,ioos.station.NOAA.NDBC:LMDF1:1,2016-02-11T21:00:00Z,25.1760,-80.6330,1.5,20.06,1111122 
ENP,ioos.station.NOAA.NDBC:LMDF1:1,2016-02-11T22:00:00Z,25.1760,-80.6330,1.5,21.2,1111122 
ENP,ioos.station.NOAA.NDBC:LMDF1:1,2016-02-11T23:00:00Z,25.1760,-80.6330,1.5,16.85,1111122 
ENP,ioos.station.NOAA.NDBC:LMDF1:1,2016-02-12T00:00:00Z,25.1760,-80.6330,1.5,18.38,1111122 
ENP,ioos.station.NOAA.NDBC:LMDF1:1,2016-02-12T01:00:00Z,25.1760,-80.6330,1.5,20.67,1111122 
ENP,ioos.station.NOAA.NDBC:LMDF1:1,2016-02-12T02:00:00Z,25.1760,-80.6330,1.5,21.63,1111122 
ENP,ioos.station.NOAA.NDBC:LMDF1:1,2016-02-12T03:00:00Z,25.1760,-80.6330,1.5,21.86,1111122 
ENP,ioos.station.NOAA.NDBC:LMDF1:1,2016-02-12T04:00:00Z,25.1760,-80.6330,1.5,21.71,1111122 
ENP,ioos.station.NOAA.NDBC:LMDF1:1,2016-02-12T05:00:00Z,25.1760,-80.6330,1.5,21.55,1111122 
ENP,ioos.station.NOAA.NDBC:LMDF1:1,2016-02-12T07:00:00Z,25.1760,-80.6330,1.5,21.46,1111122 
ENP,ioos.station.NOAA.NDBC:LMDF1:1,2016-02-12T08:00:00Z,25.1760,-80.6330,1.5,21.39,1111122 
ENP,ioos.station.NOAA.NDBC:LMDF1:1,2016-02-12T09:00:00Z,25.1760,-80.6330,1.5,21.48,1111122 
ENP,ioos.station.NOAA.NDBC:LMDF1:1,2016-02-12T10:00:00Z,25.1760,-80.6330,1.5,21.7,1111122 
ENP,ioos.station.NOAA.NDBC:LMDF1:1,2016-02-12T11:00:00Z,25.1760,-80.6330,1.5,21.89,1111122 
ENP,ioos.station.NOAA.NDBC:LMDF1:1,2016-02-12T12:00:00Z,25.1760,-80.6330,1.5,22.0,1111122 
ENP,ioos.station.NOAA.NDBC:LMDF1:1,2016-02-12T13:00:00Z,25.1760,-80.6330,1.5,21.67,1111122 
ENP,ioos.station.NOAA.NDBC:LMDF1:1,2016-02-12T14:00:00Z,25.1760,-80.6330,1.5,21.79,1111122 
ENP,ioos.station.NOAA.NDBC:LMDF1:1,2016-02-12T15:00:00Z,25.1760,-80.6330,1.5,22.01,1111122 
ENP,ioos.station.NOAA.NDBC:LMDF1:1,2016-02-12T17:00:00Z,25.1760,-80.6330,1.5,22.28,1111122 
ENP,ioos.station.NOAA.NDBC:LMDF1:1,2016-02-12T18:00:00Z,25.1760,-80.6330,1.5,22.17,1111122 
ENP,ioos.station.NOAA.NDBC:LMDF1:1,2016-02-12T19:00:00Z,25.1760,-80.6330,1.5,20.58,1111122 
ENP,ioos.station.NOAA.NDBC:LMDF1:1,2016-02-12T20:00:00Z,25.1760,-80.6330,1.5,17.7,1111122 
ENP,ioos.station.NOAA.NDBC:LMDF1:1,2016-02-12T21:00:00Z,25.1760,-80.6330,1.5,18.22,1111122 